Change the Weather History Date:

Monday, November 25, 2013

  Actual Average Record
Temperature  
Mean Temperature 32 °F 43 °F  
Max Temperature 35 °F 52 °F 69 °F (1990)
Min Temperature 29 °F 33 °F 19 °F (2005)
Degree Days  
Heating Degree Days 33 22  
Month to date heating degree days 481 430  
Since 1 July heating degree days 748 733  
Cooling Degree Days 0 0  
Month to date cooling degree days 0 0  
Year to date cooling degree days 1441 1451  
Moisture  
Dew Point 22 °F    
Average Humidity 68    
Maximum Humidity 82    
Minimum Humidity 53    
Precipitation  
Precipitation T in 0.16 in 2.43 in (2010)
Month to date precipitation 1.65 3.65  
Year to date precipitation 34.52 41.77  
Sea Level Pressure  
Sea Level Pressure 30.32 in    
Wind  
Wind Speed 5 mph (South)    
Max Wind Speed 10 mph    
Max Gust Speed 14 mph    
Visibility 10 miles    
Events      
T = Trace of Precipitation, MM = Missing Value Source: NWS Daily Summary

Daily Weather History Graph

Daily Weather History Graph

Search for Another Location

Airport or City:

Trip Planner

Search our weather history database for the weather conditions in past years. The results will help you decide how hot, cold, wet, or windy it might be!

Date:

Astronomy

Nov. 25, 2013 Rise Set
Actual Time 6:47 AM CST 4:42 PM CST
Civil Twilight 6:19 AM CST 5:10 PM CST
Nautical Twilight 5:47 AM CST 5:42 PM CST
Astronomical Twilight 5:16 AM CST 6:14 PM CST
Moon No Moon Rise 12:10 PM CST (11/25)
Length of Visible Light 10h 51m
Length of Day
9h 54m
Waning Gibbous, 51% of the Moon is Illuminated
Nov 25
Waning Gibbous
Nov 25
Last Quarter
Dec 2
New
Dec 9
First Quarter
Dec 17
Full

Hourly Weather History & Observations

Time (CST) Temp. Windchill Dew Point Humidity Pressure Visibility Wind Dir Wind Speed Gust Speed Precip Events Conditions
12:53 AM 28.9 °F 22.8 °F 15.1 °F 56% 30.47 in 10.0 mi East 5.8 mph - N/A   Scattered Clouds
1:53 AM 30.0 °F 24.1 °F 16.0 °F 56% 30.44 in 10.0 mi East 5.8 mph - N/A   Overcast
2:53 AM 30.0 °F 24.1 °F 16.0 °F 56% 30.43 in 10.0 mi SE 5.8 mph - N/A   Overcast
3:53 AM 30.0 °F 24.1 °F 16.0 °F 56% 30.41 in 10.0 mi SSE 5.8 mph - N/A   Overcast
4:53 AM 30.0 °F 25.2 °F 18.0 °F 61% 30.41 in 10.0 mi SSE 4.6 mph - N/A   Overcast
5:53 AM 30.0 °F 22.4 °F 18.0 °F 61% 30.39 in 10.0 mi SSE 8.1 mph - N/A   Mostly Cloudy
6:53 AM 30.0 °F 25.2 °F 18.0 °F 61% 30.38 in 10.0 mi SSE 4.6 mph - N/A   Overcast
7:53 AM 30.9 °F 25.2 °F 19.0 °F 61% 30.37 in 10.0 mi SSE 5.8 mph - N/A   Overcast
8:53 AM 32.0 °F 25.6 °F 19.0 °F 59% 30.37 in 10.0 mi South 6.9 mph - N/A   Overcast
9:53 AM 34.0 °F 28.8 °F 19.0 °F 54% 30.37 in 10.0 mi SSW 5.8 mph - N/A   Overcast
10:53 AM 34.0 °F 27.2 °F 19.0 °F 54% 30.35 in 10.0 mi South 8.1 mph - N/A   Overcast
11:53 AM 34.0 °F 28.0 °F 19.9 °F 56% 30.32 in 10.0 mi SW 6.9 mph - N/A   Overcast
12:53 PM 34.0 °F 28.0 °F 21.0 °F 59% 30.30 in 10.0 mi SSW 6.9 mph - N/A   Overcast
1:53 PM 34.0 °F 29.8 °F 23.0 °F 64% 30.29 in 9.0 mi SSW 4.6 mph - 0.00 in   Overcast
2:53 PM 33.1 °F 30.0 °F 25.0 °F 72% 30.27 in 10.0 mi South 3.5 mph - 0.00 in   Overcast
3:53 PM 33.1 °F 27.7 °F 25.0 °F 72% 30.25 in 10.0 mi SE 5.8 mph - 0.00 in   Overcast
4:53 PM 33.1 °F 30.0 °F 25.0 °F 72% 30.27 in 10.0 mi SE 3.5 mph - N/A   Overcast
5:53 PM 33.1 °F 28.7 °F 26.1 °F 75% 30.27 in 10.0 mi South 4.6 mph - N/A   Overcast
6:53 PM 33.1 °F 30.0 °F 26.1 °F 75% 30.27 in 10.0 mi SW 3.5 mph - N/A   Overcast
7:53 PM 33.1 °F - 26.1 °F 75% 30.24 in 10.0 mi Calm Calm - N/A   Overcast
8:53 PM 32.0 °F 28.7 °F 27.0 °F 82% 30.21 in 10.0 mi SE 3.5 mph - N/A   Overcast
9:34 PM 33.1 °F 30.0 °F 27.0 °F 78% 30.23 in 10.0 mi South 3.5 mph - N/A   Overcast
9:53 PM 33.1 °F - 28.0 °F 82% 30.24 in 10.0 mi Calm Calm - N/A   Overcast
10:53 PM 33.1 °F - 28.0 °F 82% 30.24 in 10.0 mi Calm Calm - N/A   Overcast
11:26 PM 33.1 °F - 28.9 °F 85% 30.21 in 10.0 mi Calm Calm - N/A   Overcast
11:53 PM 33.1 °F 30.0 °F 28.0 °F 82% 30.22 in 10.0 mi WNW 3.5 mph - N/A   Overcast